Radiation Dose at Monitoring Post of Fukushima Daini Nuclear Power Station
Date,Time,MP-1(microSv/h),MP-2(microSv/h),MP-3(microSv/h),MP-4(microSv/h),MP-5(microSv/h),MP-6(microSv/h),MP-7(microSv/h),Wind Direction,Wind Velocity(m/s),Rain
2018/08/29,00:00,0.311,0.196,0.312,0.303,0.282,0.156,0.099,northeast,1.6,Yes
2018/08/29,00:10,0.314,0.196,0.315,0.300,0.283,0.157,0.098,north-northeast,2.1,Yes
2018/08/29,00:20,0.313,0.198,0.314,0.304,0.286,0.156,0.098,north-northeast,2.9,Yes
2018/08/29,00:30,0.311,0.197,0.312,0.303,0.282,0.158,0.100,north-northeast,1.7,Yes
2018/08/29,00:40,0.314,0.199,0.317,0.301,0.285,0.158,0.100,northeast,2.1,Yes
2018/08/29,00:50,0.313,0.198,0.316,0.304,0.285,0.159,0.101,north-northeast,1.3,Yes
2018/08/29,01:00,0.312,0.198,0.313,0.301,0.282,0.159,0.103,north,3.8,Yes
2018/08/29,01:10,0.313,0.199,0.314,0.301,0.285,0.159,0.104,north,4.9,Yes
2018/08/29,01:20,0.312,0.199,0.312,0.303,0.287,0.160,0.104,north-northeast,3.9,Yes
2018/08/29,01:30,0.312,0.199,0.317,0.301,0.286,0.160,0.104,north,3.1,Yes
2018/08/29,01:40,0.315,0.200,0.315,0.305,0.289,0.159,0.103,north-northeast,3.3,Yes
2018/08/29,01:50,0.311,0.198,0.313,0.306,0.288,0.160,0.103,north,3.8,Yes
2018/08/29,02:00,0.314,0.198,0.316,0.302,0.285,0.160,0.103,north,4.5,Yes
2018/08/29,02:10,0.311,0.198,0.313,0.305,0.290,0.158,0.102,north,4.1,Yes
2018/08/29,02:20,0.309,0.196,0.313,0.303,0.287,0.158,0.102,north,5.5,Yes
2018/08/29,02:30,0.311,0.197,0.315,0.302,0.285,0.158,0.100,north,7.5,Yes
2018/08/29,02:40,0.310,0.194,0.312,0.304,0.287,0.157,0.099,north,7.6,Yes
2018/08/29,02:50,0.307,0.196,0.314,0.301,0.285,0.156,0.099,north,7.1,No
2018/08/29,03:00,0.310,0.195,0.312,0.302,0.284,0.156,0.099,north-northwest,6.4,No
2018/08/29,03:10,0.307,0.194,0.312,0.303,0.286,0.155,0.099,north-northwest,7.0,No
2018/08/29,03:20,0.309,0.194,0.313,0.299,0.281,0.154,0.098,north,7.2,Yes
2018/08/29,03:30,0.309,0.192,0.310,0.301,0.285,0.155,0.098,north-northwest,6.8,Yes
2018/08/29,03:40,0.306,0.193,0.313,0.299,0.281,0.154,0.097,north-northwest,7.8,Yes
2018/08/29,03:50,0.308,0.192,0.310,0.299,0.281,0.155,0.098,north,7.9,No
2018/08/29,04:00,0.305,0.192,0.310,0.302,0.284,0.154,0.097,north,7.2,No
2018/08/29,04:10,0.308,0.192,0.312,0.298,0.282,0.153,0.097,north,7.2,No
2018/08/29,04:20,0.307,0.190,0.308,0.300,0.284,0.154,0.097,north-northwest,8.1,No
2018/08/29,04:30,0.305,0.191,0.312,0.299,0.281,0.153,0.096,north-northwest,7.9,No
2018/08/29,04:40,0.308,0.191,0.309,0.298,0.281,0.154,0.097,north,8.4,Yes
2018/08/29,04:50,0.306,0.192,0.310,0.300,0.284,0.153,0.097,north,8.8,No
2018/08/29,05:00,0.307,0.191,0.311,0.298,0.280,0.154,0.097,north,7.4,No
2018/08/29,05:10,0.307,0.191,0.310,0.299,0.284,0.154,0.096,north-northwest,7.3,No
2018/08/29,05:20,0.306,0.192,0.312,0.300,0.282,0.153,0.096,north-northwest,8.1,Yes
2018/08/29,05:30,0.309,0.190,0.309,0.298,0.281,0.153,0.096,north-northwest,8.6,Yes
2018/08/29,05:40,0.307,0.192,0.312,0.301,0.283,0.154,0.096,north-northwest,8.5,Yes
2018/08/29,05:50,0.311,0.193,0.312,0.298,0.282,0.156,0.098,north,8.4,Yes
2018/08/29,06:00,0.310,0.199,0.312,0.301,0.286,0.159,0.100,north,8.5,Yes
2018/08/29,06:10,0.310,0.197,0.315,0.302,0.286,0.158,0.101,north-northwest,8.4,Yes
2018/08/29,06:20,0.312,0.199,0.312,0.300,0.285,0.159,0.102,north,8.1,Yes
2018/08/29,06:30,0.308,0.199,0.314,0.301,0.288,0.160,0.104,north-northwest,6.7,Yes
2018/08/29,06:40,0.312,0.200,0.313,0.300,0.286,0.159,0.105,north-northwest,8.1,Yes
2018/08/29,06:50,0.310,0.199,0.315,0.302,0.288,0.160,0.105,north-northwest,8.2,Yes
2018/08/29,07:00,0.310,0.197,0.313,0.300,0.285,0.158,0.102,north-northwest,8.6,Yes
2018/08/29,07:10,0.310,0.198,0.314,0.301,0.284,0.156,0.103,north-northwest,8.1,Yes
2018/08/29,07:20,0.308,0.196,0.313,0.301,0.286,0.157,0.101,north-northwest,7.7,No
2018/08/29,07:30,0.311,0.196,0.309,0.298,0.282,0.154,0.100,north-northwest,7.5,No
2018/08/29,07:40,0.307,0.194,0.312,0.300,0.285,0.155,0.098,north-northwest,8.3,No
2018/08/29,07:50,0.307,0.194,0.309,0.298,0.282,0.155,0.098,north-northwest,7.5,Yes
2018/08/29,08:00,0.308,0.195,0.314,0.300,0.282,0.155,0.099,north,8.1,Yes
2018/08/29,08:10,0.307,0.194,0.311,0.301,0.286,0.156,0.099,north,7.7,Yes
2018/08/29,08:20,0.308,0.195,0.311,0.298,0.281,0.155,0.099,north,6.7,Yes
2018/08/29,08:30,0.305,0.194,0.314,0.301,0.284,0.154,0.099,north,6.9,No
2018/08/29,08:40,0.305,0.193,0.309,0.298,0.283,0.154,0.098,north-northwest,6.2,No
2018/08/29,08:50,0.306,0.191,0.312,0.296,0.281,0.152,0.097,north,5.2,No
2018/08/29,09:00,0.304,0.190,0.310,0.300,0.283,0.152,0.096,north,6.6,No
2018/08/29,09:10,0.308,0.193,0.308,0.296,0.281,0.152,0.095,north,6.4,No
2018/08/29,09:20,0.305,0.190,0.311,0.297,0.278,0.151,0.096,north,6.5,No
2018/08/29,09:30,0.303,0.189,0.308,0.299,0.282,0.150,0.094,north-northwest,6.3,No
2018/08/29,09:40,0.306,0.190,0.309,0.296,0.280,0.151,0.094,north-northwest,6.0,No
2018/08/29,09:50,0.304,0.189,0.311,0.298,0.280,0.152,0.095,north,5.9,No
2018/08/29,10:00,0.305,0.189,0.307,0.298,0.282,0.151,0.095,north-northwest,5.6,No
2018/08/29,10:10,0.307,0.192,0.311,0.295,0.279,0.152,0.094,north,6.2,No
2018/08/29,10:20,0.303,0.190,0.309,0.297,0.280,0.152,0.095,north,6.3,No
2018/08/29,10:30,0.305,0.190,0.306,0.298,0.282,0.151,0.094,north,7.5,No
2018/08/29,10:40,0.306,0.190,0.309,0.295,0.279,0.151,0.093,north,6.5,No
2018/08/29,10:50,0.302,0.188,0.309,0.296,0.278,0.151,0.094,north,5.9,No
2018/08/29,11:00,0.305,0.189,0.307,0.298,0.282,0.151,0.094,north,4.8,No
2018/08/29,11:10,0.305,0.189,0.311,0.294,0.278,0.150,0.092,north,5.1,No
2018/08/29,11:20,0.304,0.189,0.309,0.295,0.278,0.150,0.092,north,6.3,No
2018/08/29,11:30,0.302,0.188,0.306,0.298,0.277,0.150,0.093,north,5.8,No
2018/08/29,11:40,0.302,0.187,0.306,0.297,0.277,0.151,0.092,north,6.6,-
2018/08/29,11:50,0.305,0.188,0.310,0.295,0.277,0.150,0.093,north,5.8,-
2018/08/29,12:00,0.306,0.190,0.309,0.294,0.277,0.149,0.092,north,5.6,No
2018/08/29,12:10,0.303,0.191,0.307,0.293,0.279,0.150,0.093,north,5.2,No
2018/08/29,12:20,0.301,0.189,0.306,0.298,0.282,0.150,0.093,north,4.7,No
2018/08/29,12:30,0.307,0.188,0.311,0.298,0.281,0.151,0.093,north,6.1,No
2018/08/29,12:40,0.308,0.188,0.309,0.297,0.279,0.151,0.092,north,6.3,No
2018/08/29,12:50,0.306,0.190,0.309,0.294,0.278,0.151,0.093,north,6.1,No
2018/08/29,13:00,0.303,0.190,0.306,0.296,0.278,0.151,0.092,north,5.8,No
2018/08/29,13:10,0.306,0.189,0.310,0.299,0.277,0.150,0.093,north-northeast,6.6,No
2018/08/29,13:20,0.307,0.188,0.311,0.299,0.277,0.151,0.092,north,5.4,No
2018/08/29,13:30,0.305,0.187,0.308,0.296,0.283,0.151,0.092,north,6.8,No
2018/08/29,13:40,0.303,0.188,0.307,0.294,0.282,0.151,0.093,north,5.7,No
2018/08/29,13:50,0.306,0.190,0.312,0.299,0.280,0.152,0.093,north,4.6,No
2018/08/29,14:00,0.309,0.189,0.311,0.300,0.278,0.151,0.094,north,4.5,No
2018/08/29,14:10,0.306,0.187,0.309,0.298,0.283,0.151,0.093,north,4.2,Yes
2018/08/29,14:20,0.305,0.192,0.311,0.296,0.284,0.152,0.093,north,5.8,Yes
2018/08/29,14:30,0.310,0.192,0.313,0.302,0.282,0.154,0.097,north,5.0,Yes
2018/08/29,14:40,0.309,0.192,0.310,0.300,0.283,0.155,0.098,north,5.0,Yes
2018/08/29,14:50,0.309,0.194,0.314,0.299,0.285,0.154,0.096,north,3.5,Yes
2018/08/29,15:00,0.313,0.192,0.313,0.303,0.283,0.154,0.097,north,4.3,No
2018/08/29,15:10,0.310,0.192,0.310,0.300,0.283,0.154,0.096,north,5.0,No
2018/08/29,15:20,0.307,0.193,0.314,0.298,0.284,0.153,0.095,north,6.2,Yes
2018/08/29,15:30,0.309,0.192,0.313,0.302,0.282,0.154,0.096,north,5.3,Yes
2018/08/29,15:40,0.310,0.191,0.311,0.300,0.282,0.156,0.098,-,CALM,Yes
2018/08/29,15:50,0.309,0.195,0.315,0.299,0.284,0.156,0.097,north,5.2,Yes
2018/08/29,16:00,0.312,0.193,0.312,0.303,0.281,0.156,0.097,north,5.5,Yes
2018/08/29,16:10,0.309,0.194,0.313,0.299,0.283,0.155,0.098,north,4.9,No
2018/08/29,16:20,0.307,0.194,0.313,0.300,0.283,0.155,0.096,north-northwest,5.0,No
2018/08/29,16:30,0.312,0.191,0.310,0.301,0.280,0.153,0.096,north,5.0,No
2018/08/29,16:40,0.307,0.193,0.313,0.298,0.281,0.155,0.096,north,4.9,No
2018/08/29,16:50,0.305,0.191,0.312,0.298,0.284,0.153,0.094,north,5.4,No
2018/08/29,17:00,0.312,0.188,0.308,0.300,0.280,0.152,0.093,north-northwest,5.8,No
2018/08/29,17:10,0.307,0.191,0.311,0.295,0.279,0.152,0.095,north,6.2,No
2018/08/29,17:20,0.305,0.191,0.309,0.298,0.283,0.152,0.093,north,5.9,No
2018/08/29,17:30,0.308,0.189,0.308,0.299,0.279,0.151,0.094,north,5.5,Yes
2018/08/29,17:40,0.307,0.193,0.314,0.298,0.281,0.153,0.095,north-northwest,6.8,Yes
2018/08/29,17:50,0.309,0.194,0.311,0.303,0.283,0.153,0.094,north,7.4,No
2018/08/29,18:00,0.312,0.193,0.313,0.301,0.281,0.153,0.095,north,6.8,No
2018/08/29,18:10,0.307,0.194,0.314,0.299,0.283,0.153,0.096,north-northwest,6.0,No
2018/08/29,18:20,0.311,0.191,0.311,0.302,0.283,0.154,0.095,north,6.1,No
2018/08/29,18:30,0.310,0.192,0.313,0.298,0.281,0.152,0.095,north,5.8,No
2018/08/29,18:40,0.306,0.191,0.311,0.300,0.283,0.153,0.094,north-northwest,5.4,No
2018/08/29,18:50,0.309,0.190,0.310,0.300,0.280,0.152,0.094,north-northwest,4.8,No
2018/08/29,19:00,0.306,0.190,0.312,0.296,0.279,0.152,0.095,north,5.3,No
2018/08/29,19:10,0.307,0.191,0.309,0.299,0.283,0.153,0.094,north,3.6,No
2018/08/29,19:20,0.308,0.191,0.312,0.297,0.280,0.152,0.094,north,4.5,No
2018/08/29,19:30,0.306,0.189,0.310,0.296,0.282,0.151,0.093,north-northwest,3.1,No
2018/08/29,19:40,0.308,0.190,0.309,0.300,0.280,0.153,0.093,north,2.6,No
2018/08/29,19:50,0.307,0.190,0.311,0.297,0.278,0.152,0.094,north,3.2,No
2018/08/29,20:00,0.307,0.189,0.309,0.297,0.283,0.151,0.093,north,4.2,No
2018/08/29,20:10,0.309,0.190,0.310,0.300,0.279,0.153,0.093,north,4.7,No
2018/08/29,20:20,0.308,0.190,0.309,0.296,0.280,0.152,0.094,north,5.6,No
2018/08/29,20:30,0.304,0.189,0.308,0.300,0.282,0.152,0.093,north,5.2,No
2018/08/29,20:40,0.308,0.190,0.312,0.298,0.280,0.152,0.094,north,5.4,No
2018/08/29,20:50,0.306,0.189,0.309,0.297,0.281,0.152,0.094,north,4.8,No
2018/08/29,21:00,0.306,0.190,0.310,0.300,0.281,0.152,0.093,north,5.6,No
2018/08/29,21:10,0.308,0.189,0.312,0.297,0.279,0.153,0.094,north,4.4,No
2018/08/29,21:20,0.306,0.190,0.308,0.299,0.281,0.151,0.094,north-northwest,4.4,No
2018/08/29,21:30,0.308,0.190,0.311,0.299,0.279,0.152,0.094,north,3.8,No
2018/08/29,21:40,0.307,0.189,0.310,0.296,0.283,0.152,0.094,north,3.5,No
2018/08/29,21:50,0.308,0.190,0.310,0.300,0.282,0.153,0.094,north,3.0,No
2018/08/29,22:00,0.308,0.189,0.310,0.296,0.279,0.152,0.093,north,2.6,No
2018/08/29,22:10,0.306,0.190,0.307,0.299,0.283,0.151,0.093,north-northwest,2.9,No
2018/08/29,22:20,0.309,0.189,0.311,0.298,0.280,0.153,0.094,north-northeast,1.7,No
2018/08/29,22:30,0.306,0.189,0.307,0.297,0.280,0.153,0.093,north-northeast,2.0,No
2018/08/29,22:40,0.308,0.189,0.311,0.299,0.282,0.152,0.093,north-northeast,2.5,No
2018/08/29,22:50,0.308,0.189,0.310,0.297,0.278,0.152,0.094,north,2.1,No
2018/08/29,23:00,0.305,0.190,0.309,0.300,0.281,0.151,0.094,north-northeast,0.9,No
2018/08/29,23:10,0.307,0.189,0.312,0.299,0.281,0.152,0.094,north-northeast,0.6,No
2018/08/29,23:20,0.307,0.190,0.309,0.297,0.279,0.153,0.093,north,0.9,No
2018/08/29,23:30,0.308,0.190,0.312,0.299,0.282,0.152,0.093,-,CALM,No
2018/08/29,23:40,0.308,0.189,0.310,0.298,0.280,0.153,0.093,north-northeast,1.1,No
2018/08/29,23:50,0.305,0.189,0.308,0.297,0.281,0.151,0.093,north-northeast,0.7,No
